• In Netherlands
  • List of Countries
  • For 7 days
  • Water Temperature
  • Satellite Maps
  • Weather Map
  • Weather Widgets
  • user-avatar
    Login

    Hourly Weather Benguela

    Today, 22 February, Wednesday

    Time Temperature Precipitation Wind Pressure Humidity
    00:00 +27°C° 0 mm 2 mps 758 mmHg 81%
    01:00 +26°C° 0 mm 2 mps 758 mmHg 82%
    02:00 +26°C° 0 mm 2 mps 758 mmHg 83%
    03:00 +26°C° 0 mm 2 mps 758 mmHg 83%
    04:00 +26°C° 0 mm 2 mps 758 mmHg 84%
    05:00 +26°C° 0 mm 2 mps 758 mmHg 80%
    06:00 +27°C° 0 mm 2 mps 758 mmHg 77%
    07:00 +28°C° 0 mm 2 mps 759 mmHg 73%
    08:00 +30°C° 0 mm 2 mps 759 mmHg 63%
    09:00 +32°C° 0 mm 2 mps 759 mmHg 54%
    10:00 +35°C° 0 mm 2 mps 759 mmHg 44%
    11:00 +36°C° 0 mm 4 mps 758 mmHg 41%
    12:00 +37°C° 0 mm 5 mps 758 mmHg 38%
    13:00 +39°C° 0 mm 6 mps 758 mmHg 36%
    14:00 +39°C° 0 mm 6 mps 757 mmHg 37%
    15:00 +38°C° 0 mm 6 mps 757 mmHg 39%
    16:00 +38°C° 0 mm 6 mps 756 mmHg 41%
    17:00 +35°C° 0 mm 5 mps 756 mmHg 48%
    18:00 +33°C° 0 mm 5 mps 757 mmHg 55%
    19:00 +30°C° 0 mm 4 mps 757 mmHg 63%
    20:00 +29°C° 0 mm 3 mps 758 mmHg 67%
    21:00 +28°C° 0 mm 3 mps 758 mmHg 71%
    22:00 +27°C° 0 mm 3 mps 759 mmHg 76%
    23:00 +27°C° 0 mm 2 mps 759 mmHg 77%

    Tomorrow, 23 February, Thursday

    Time Temperature Precipitation Wind Pressure Humidity
    00:00 +27°C° 0 mm 2 mps 759 mmHg 78%
    01:00 +26°C° 0 mm 2 mps 758 mmHg 79%
    02:00 +26°C° 0 mm 2 mps 758 mmHg 80%
    03:00 +26°C° 0 mm 2 mps 758 mmHg 82%
    04:00 +25°C° 0 mm 2 mps 758 mmHg 83%
    05:00 +26°C° 0 mm 2 mps 758 mmHg 78%
    06:00 +27°C° 0 mm 2 mps 758 mmHg 74%
    07:00 +28°C° 0 mm 2 mps 758 mmHg 70%
    08:00 +30°C° 0 mm 2 mps 759 mmHg 60%
    09:00 +32°C° 0 mm 2 mps 759 mmHg 49%
    10:00 +35°C° 0 mm 2 mps 759 mmHg 39%
    11:00 +36°C° 0 mm 3 mps 758 mmHg 36%
    12:00 +38°C° 0 mm 4 mps 758 mmHg 34%
    13:00 +40°C° 0 mm 5 mps 757 mmHg 31%
    14:00 +39°C° 0 mm 5 mps 757 mmHg 33%
    15:00 +39°C° 0 mm 6 mps 756 mmHg 35%
    16:00 +38°C° 0 mm 6 mps 756 mmHg 37%
    17:00 +35°C° 0 mm 5 mps 756 mmHg 46%
    18:00 +33°C° 0 mm 5 mps 757 mmHg 55%
    19:00 +30°C° 0 mm 4 mps 757 mmHg 63%
    20:00 +29°C° 0 mm 3 mps 758 mmHg 68%
    21:00 +28°C° 0 mm 3 mps 758 mmHg 73%
    22:00 +27°C° 0 mm 3 mps 759 mmHg 79%
    23:00 +27°C° 0 mm 3 mps 758 mmHg 80%

    Day after tomorrow, 24 February, Friday

    Time Temperature Precipitation Wind Pressure Humidity
    00:00 +27°C° 0 mm 3 mps 758 mmHg 81%
    01:00 +26°C° 0 mm 3 mps 758 mmHg 82%
    02:00 +26°C° 0 mm 3 mps 757 mmHg 81%
    03:00 +26°C° 0 mm 3 mps 757 mmHg 80%
    04:00 +26°C° 0 mm 3 mps 757 mmHg 79%
    05:00 +27°C° 0 mm 3 mps 757 mmHg 74%
    06:00 +28°C° 0 mm 3 mps 757 mmHg 69%
    07:00 +28°C° 0 mm 3 mps 758 mmHg 64%
    08:00 +31°C° 0 mm 3 mps 758 mmHg 56%
    09:00 +34°C° 0 mm 3 mps 758 mmHg 48%
    10:00 +36°C° 0 mm 3 mps 758 mmHg 39%
    11:00 +37°C° 0 mm 4 mps 758 mmHg 38%
    12:00 +39°C° 0 mm 5 mps 757 mmHg 36%
    13:00 +40°C° 0 mm 6 mps 757 mmHg 35%
    14:00 +39°C° 0 mm 6 mps 756 mmHg 37%
    15:00 +39°C° 0 mm 6 mps 755 mmHg 38%
    16:00 +38°C° 0 mm 6 mps 755 mmHg 40%
    17:00 +35°C° 0 mm 6 mps 755 mmHg 48%
    18:00 +33°C° 0 mm 5 mps 756 mmHg 57%
    19:00 +30°C° 0 mm 4 mps 757 mmHg 65%
    20:00 +29°C° 0 mm 4 mps 757 mmHg 70%
    21:00 +28°C° 0 mm 3 mps 758 mmHg 76%
    22:00 +27°C° 0 mm 3 mps 759 mmHg 81%
    23:00 +26°C° 0 mm 3 mps 759 mmHg 83%

    25 February, Saturday

    Time Temperature Precipitation Wind Pressure Humidity
    00:00 +26°C° 0 mm 3 mps 758 mmHg 85%
    01:00 +26°C° 0 mm 3 mps 758 mmHg 87%
    02:00 +25°C° 0 mm 2 mps 758 mmHg 88%
    03:00 +25°C° 0 mm 2 mps 757 mmHg 89%
    04:00 +25°C° 0 mm 2 mps 757 mmHg 89%
    05:00 +25°C° 0 mm 2 mps 758 mmHg 86%
    06:00 +26°C° 0 mm 1 mps 758 mmHg 82%
    07:00 +27°C° 0 mm 1 mps 758 mmHg 79%
    08:00 +29°C° 0 mm 2 mps 758 mmHg 67%
    09:00 +31°C° 0 mm 2 mps 758 mmHg 55%
    10:00 +35°C° 0 mm 2 mps 758 mmHg 43%
    11:00 +36°C° 0 mm 3 mps 758 mmHg 43%
    12:00 +36°C° 0 mm 4 mps 757 mmHg 42%
    13:00 +37°C° 0 mm 5 mps 757 mmHg 42%
    14:00 +37°C° 0 mm 5 mps 756 mmHg 44%
    15:00 +36°C° 0 mm 5 mps 756 mmHg 46%
    16:00 +36°C° 0 mm 5 mps 755 mmHg 48%
    17:00 +34°C° 0 mm 5 mps 756 mmHg 56%
    18:00 +32°C° 0 mm 4 mps 756 mmHg 63%
    19:00 +29°C° 0 mm 4 mps 757 mmHg 71%
    20:00 +28°C° 0 mm 3 mps 758 mmHg 75%
    21:00 +28°C° 0 mm 3 mps 758 mmHg 79%
    22:00 +27°C° 0 mm 2 mps 758 mmHg 82%
    23:00 +27°C° 0 mm 2 mps 758 mmHg 83%

    26 February, Sunday

    Time Temperature Precipitation Wind Pressure Humidity
    00:00 +26°C° 0 mm 2 mps 758 mmHg 84%
    01:00 +26°C° 0 mm 2 mps 757 mmHg 85%
    02:00 +26°C° 0 mm 2 mps 757 mmHg 85%
    03:00 +26°C° 0 mm 2 mps 757 mmHg 84%
    04:00 +26°C° 0 mm 2 mps 756 mmHg 83%
    05:00 +27°C° 0 mm 2 mps 757 mmHg 80%
    06:00 +27°C° 0 mm 2 mps 757 mmHg 76%
    07:00 +28°C° 0 mm 2 mps 758 mmHg 72%
    08:00 +30°C° 0 mm 2 mps 758 mmHg 63%
    09:00 +32°C° 0 mm 2 mps 758 mmHg 53%
    10:00 +35°C° 0 mm 2 mps 758 mmHg 44%
    11:00 +36°C° 0 mm 3 mps 757 mmHg 43%
    12:00 +37°C° 0 mm 4 mps 756 mmHg 41%
    13:00 +39°C° 0 mm 5 mps 755 mmHg 40%
    14:00 +37°C° 0 mm 5 mps 755 mmHg 44%
    15:00 +36°C° 0 mm 6 mps 754 mmHg 47%
    16:00 +36°C° 0 mm 6 mps 754 mmHg 51%
    17:00 +34°C° 0 mm 5 mps 754 mmHg 58%
    18:00 +32°C° 0 mm 4 mps 755 mmHg 64%
    19:00 +29°C° 0 mm 4 mps 756 mmHg 71%
    20:00 +29°C° 0 mm 3 mps 756 mmHg 75%
    21:00 +28°C° 0 mm 3 mps 756 mmHg 79%
    22:00 +28°C° 0 mm 3 mps 756 mmHg 83%
    23:00 +27°C° 0 mm 2 mps 756 mmHg 84%

    27 February, Monday

    Time Temperature Precipitation Wind Pressure Humidity
    00:00 +27°C° 0 mm 2 mps 756 mmHg 85%
    01:00 +27°C° 0 mm 2 mps 756 mmHg 86%
    02:00 +26°C° 0 mm 2 mps 755 mmHg 87%
    03:00 +26°C° 0 mm 2 mps 755 mmHg 89%
    04:00 +26°C° 0 mm 2 mps 755 mmHg 90%
    05:00 +26°C° 0 mm 1 mps 756 mmHg 88%
    06:00 +27°C° 0 mm 1 mps 756 mmHg 86%
    07:00 +27°C° 0 mm 1 mps 756 mmHg 84%
    08:00 +29°C° 0 mm 1 mps 756 mmHg 73%
    09:00 +31°C° 0 mm 2 mps 756 mmHg 62%
    10:00 +34°C° 0 mm 2 mps 756 mmHg 52%
    11:00 +35°C° 0 mm 3 mps 756 mmHg 49%
    12:00 +36°C° 0 mm 4 mps 755 mmHg 46%
    13:00 +37°C° 0 mm 5 mps 755 mmHg 43%
    14:00 +36°C° 0 mm 5 mps 754 mmHg 46%
    15:00 +35°C° 0 mm 5 mps 754 mmHg 50%
    16:00 +34°C° 0 mm 5 mps 754 mmHg 53%
    17:00 +33°C° 0 mm 4 mps 754 mmHg 60%
    18:00 +30°C° 0 mm 4 mps 755 mmHg 66%
    19:00 +29°C° 0 mm 3 mps 755 mmHg 72%
    20:00 +28°C° 0 mm 3 mps 756 mmHg 75%
    21:00 +28°C° 0 mm 2 mps 756 mmHg 78%
    22:00 +27°C° 0 mm 2 mps 756 mmHg 80%
    23:00 +27°C° 0 mm 2 mps 756 mmHg 82%
    Show more